UAE213 KMIA-SKBO

Flight info

Callsign UAE213
Flight time 2h 49m
Altitude 35000
Route GWAVA2 URSUS UP406 BILSI DCT ALTIB UL795 LENAX UL417 NEFTU UP525 SINID/N0483F370 UP525 EJA UW91 ILSEV ILSEV5E
Aircraft B77W/H-SDE1E2E3FGHIJ2J3J4J5M1RWXY/LB1D1

Departure

Time 2026-05-06 16:43
Airport Miami International Airport (KMIA)

Arrival

Time 2026-05-06 19:32
Airport El Dorado International Airport (SKBO)
Time Latitude Longitude Altitude Speed Heading
2026-05-06 15:54 25.79003 -80.27398 20 ft 0 kts 47°
2026-05-06 16:31 25.79000 -80.27402 20 ft 2 kts 47°
2026-05-06 16:31 25.78989 -80.27414 20 ft 2 kts 46°
2026-05-06 16:31 25.78978 -80.27426 20 ft 2 kts 46°
2026-05-06 16:31 25.78968 -80.27439 20 ft 2 kts 53°
2026-05-06 16:32 25.78962 -80.27454 20 ft 2 kts 81°
2026-05-06 16:32 25.78961 -80.27470 20 ft 2 kts 102°
2026-05-06 16:32 25.78966 -80.27486 20 ft 2 kts 123°
2026-05-06 16:32 25.78977 -80.27499 20 ft 2 kts 145°
2026-05-06 16:33 25.78991 -80.27505 20 ft 2 kts 167°
2026-05-06 16:33 25.79006 -80.27507 20 ft 2 kts 189°
2026-05-06 16:33 25.79014 -80.27505 20 ft 0 kts 195°
2026-05-06 16:35 25.79010 -80.27506 20 ft 2 kts 191°
2026-05-06 16:36 25.78977 -80.27508 20 ft 6 kts 181°
2026-05-06 16:36 25.78936 -80.27515 20 ft 5 kts 210°
2026-05-06 16:36 25.78903 -80.27564 20 ft 13 kts 248°
2026-05-06 16:36 25.78881 -80.27687 20 ft 16 kts 265°
2026-05-06 16:37 25.78869 -80.27806 20 ft 16 kts 260°
2026-05-06 16:37 25.78867 -80.27922 20 ft 13 kts 288°
2026-05-06 16:37 25.78916 -80.28027 20 ft 19 kts 300°
2026-05-06 16:37 25.78987 -80.28167 20 ft 20 kts 300°
2026-05-06 16:38 25.79052 -80.28294 20 ft 18 kts 299°
2026-05-06 16:38 25.79110 -80.28402 20 ft 14 kts 307°
2026-05-06 16:38 25.79167 -80.28490 20 ft 15 kts 301°
2026-05-06 16:38 25.79244 -80.28641 20 ft 26 kts 300°
2026-05-06 16:39 25.79332 -80.28812 20 ft 24 kts 300°
2026-05-06 16:39 25.79413 -80.28970 20 ft 22 kts 299°
2026-05-06 16:39 25.79487 -80.29114 20 ft 20 kts 301°
2026-05-06 16:39 25.79557 -80.29253 20 ft 21 kts 299°
2026-05-06 16:40 25.79633 -80.29403 20 ft 22 kts 300°
2026-05-06 16:40 25.79711 -80.29555 20 ft 22 kts 299°
2026-05-06 16:40 25.79789 -80.29708 20 ft 22 kts 300°
2026-05-06 16:40 25.79866 -80.29855 20 ft 20 kts 300°
2026-05-06 16:41 25.79912 -80.29947 20 ft 11 kts 299°
2026-05-06 16:41 25.79949 -80.30019 20 ft 10 kts 300°
2026-05-06 16:41 25.79986 -80.30089 20 ft 10 kts 309°
2026-05-06 16:41 25.80043 -80.30113 20 ft 8 kts 19°
2026-05-06 16:42 25.80071 -80.30064 20 ft 8 kts 81°
2026-05-06 16:42 25.80079 -80.29917 20 ft 39 kts 88°
2026-05-06 16:42 25.80105 -80.29302 20 ft 117 kts 87°
2026-05-06 16:42 25.80154 -80.28133 54 ft 180 kts 89°
2026-05-06 16:43 25.80211 -80.26711 677 ft 195 kts 90°
2026-05-06 16:43 25.80192 -80.25234 1659 ft 193 kts 99°
2026-05-06 16:43 25.79723 -80.23837 2258 ft 199 kts 126°
2026-05-06 16:43 25.78624 -80.22835 2588 ft 221 kts 158°
2026-05-06 16:44 25.77100 -80.22200 2985 ft 243 kts 149°
2026-05-06 16:44 25.75685 -80.21034 3521 ft 262 kts 139°
2026-05-06 16:44 25.74247 -80.19769 4372 ft 268 kts 150°
2026-05-06 16:44 25.72436 -80.19168 5175 ft 277 kts 174°
2026-05-06 16:45 25.70510 -80.19074 6048 ft 281 kts 178°
2026-05-06 16:45 25.68550 -80.19029 6867 ft 285 kts 179°
2026-05-06 16:45 25.66566 -80.19150 7651 ft 289 kts 186°
2026-05-06 16:45 25.64541 -80.19422 8428 ft 292 kts 187°
2026-05-06 16:46 25.62522 -80.19535 9163 ft 296 kts 172°
2026-05-06 16:46 25.60575 -80.18819 10057 ft 299 kts 153°
2026-05-06 16:46 25.58729 -80.17676 10809 ft 310 kts 149°
2026-05-06 16:46 25.56817 -80.16405 11388 ft 329 kts 149°
2026-05-06 16:47 25.54793 -80.15058 11969 ft 347 kts 149°
2026-05-06 16:47 25.52655 -80.13643 12437 ft 364 kts 149°
2026-05-06 16:47 25.50449 -80.12187 12880 ft 380 kts 149°
2026-05-06 16:47 25.48122 -80.10653 13325 ft 396 kts 149°
2026-05-06 16:48 25.45698 -80.09056 13959 ft 405 kts 149°
2026-05-06 16:48 25.43254 -80.07446 14429 ft 414 kts 148°
2026-05-06 16:48 25.40731 -80.05786 14830 ft 425 kts 148°
2026-05-06 16:48 25.38176 -80.04105 15203 ft 435 kts 148°
2026-05-06 16:49 25.35529 -80.02364 15508 ft 447 kts 147°
2026-05-06 16:49 25.32841 -80.00597 16038 ft 454 kts 147°
2026-05-06 16:49 25.30095 -79.98794 16640 ft 459 kts 147°
2026-05-06 16:49 25.27336 -79.96983 17204 ft 465 kts 147°
2026-05-06 16:50 25.24582 -79.95127 17758 ft 470 kts 145°
2026-05-06 16:50 25.21794 -79.93140 18390 ft 473 kts 145°
2026-05-06 16:50 25.19044 -79.91175 18964 ft 476 kts 145°
2026-05-06 16:50 25.16229 -79.89168 19491 ft 482 kts 145°
2026-05-06 16:51 25.13386 -79.87145 20042 ft 486 kts 146°
2026-05-06 16:51 25.10526 -79.85116 20552 ft 490 kts 146°
2026-05-06 16:51 25.07649 -79.83075 21082 ft 494 kts 146°
2026-05-06 16:51 25.04753 -79.81023 21561 ft 498 kts 146°
2026-05-06 16:52 25.01813 -79.78942 22046 ft 502 kts 146°
2026-05-06 16:52 24.98869 -79.76861 22501 ft 506 kts 147°
2026-05-06 16:52 24.95903 -79.74765 22984 ft 510 kts 146°
2026-05-06 16:52 24.92903 -79.72647 23455 ft 513 kts 146°
2026-05-06 16:53 24.89879 -79.70514 23909 ft 517 kts 146°
2026-05-06 16:53 24.86810 -79.68349 24381 ft 520 kts 146°
2026-05-06 16:53 24.83787 -79.66217 24782 ft 525 kts 146°
2026-05-06 16:53 24.80666 -79.64017 25233 ft 528 kts 146°
2026-05-06 16:54 24.77580 -79.61844 25689 ft 532 kts 146°
2026-05-06 16:54 24.74460 -79.59648 26104 ft 536 kts 146°
2026-05-06 16:54 24.71296 -79.57422 26499 ft 541 kts 146°
2026-05-06 16:54 24.68123 -79.55191 26970 ft 544 kts 146°
2026-05-06 16:55 24.65041 -79.53026 27451 ft 546 kts 146°
2026-05-06 16:55 24.61820 -79.50764 27920 ft 549 kts 146°
2026-05-06 16:55 24.58588 -79.48496 28284 ft 554 kts 146°
2026-05-06 16:55 24.55332 -79.46214 28702 ft 557 kts 146°
2026-05-06 16:56 24.52032 -79.43901 29117 ft 560 kts 146°
2026-05-06 16:56 24.48747 -79.41601 29590 ft 561 kts 146°
2026-05-06 16:56 24.45466 -79.39304 30176 ft 560 kts 146°
2026-05-06 16:56 24.42176 -79.37003 30743 ft 559 kts 146°
2026-05-06 16:57 24.38915 -79.34724 31379 ft 556 kts 146°
2026-05-06 16:57 24.35629 -79.32428 32029 ft 553 kts 146°
2026-05-06 16:57 24.32393 -79.30168 32517 ft 553 kts 147°
2026-05-06 16:57 24.29129 -79.27883 33024 ft 552 kts 146°
2026-05-06 16:58 24.25886 -79.25558 33487 ft 553 kts 146°
2026-05-06 16:58 24.22685 -79.23254 34046 ft 551 kts 146°
2026-05-06 16:58 24.19463 -79.20935 34676 ft 547 kts 146°
2026-05-06 16:58 24.16296 -79.18659 35073 ft 548 kts 146°
2026-05-06 16:59 24.13066 -79.16340 35068 ft 549 kts 146°
2026-05-06 16:59 24.06697 -79.11774 35075 ft 546 kts 146°
2026-05-06 17:00 24.00075 -79.07746 35073 ft 548 kts 159°
2026-05-06 17:00 23.92676 -79.05603 35078 ft 547 kts 170°
2026-05-06 17:01 23.85199 -79.04083 35063 ft 545 kts 170°
2026-05-06 17:01 23.77684 -79.02580 35059 ft 548 kts 171°
2026-05-06 17:02 23.70223 -79.01094 35058 ft 544 kts 170°
2026-05-06 17:02 23.62706 -78.99603 35060 ft 545 kts 171°
2026-05-06 17:03 23.55245 -78.98128 35058 ft 544 kts 170°
2026-05-06 17:03 23.47781 -78.96654 35059 ft 545 kts 170°
2026-05-06 17:04 23.40310 -78.95183 35052 ft 543 kts 170°
2026-05-06 17:04 23.32845 -78.93715 35056 ft 543 kts 170°
2026-05-06 17:05 23.25403 -78.92240 35052 ft 544 kts 168°
2026-05-06 17:05 23.18272 -78.89455 35053 ft 543 kts 151°
2026-05-06 17:06 23.12043 -78.84865 35056 ft 541 kts 141°
2026-05-06 17:06 23.06064 -78.79935 35056 ft 540 kts 141°
2026-05-06 17:07 23.00077 -78.74988 35055 ft 542 kts 141°
2026-05-06 17:07 22.94130 -78.70072 35056 ft 539 kts 141°
2026-05-06 17:08 22.88367 -78.65311 35043 ft 539 kts 141°
2026-05-06 17:08 22.82445 -78.60420 35042 ft 538 kts 140°
2026-05-06 17:09 22.76457 -78.55479 35044 ft 538 kts 140°
2026-05-06 17:09 22.70511 -78.50527 35040 ft 536 kts 140°
2026-05-06 17:10 22.64579 -78.45589 35044 ft 537 kts 140°
2026-05-06 17:10 22.58889 -78.40859 35049 ft 537 kts 140°
2026-05-06 17:11 22.53325 -78.36239 35048 ft 537 kts 140°
2026-05-06 17:11 22.47480 -78.31374 35046 ft 538 kts 140°
2026-05-06 17:12 22.41562 -78.26440 35049 ft 537 kts 140°
2026-05-06 17:12 22.35664 -78.21527 35046 ft 536 kts 140°
2026-05-06 17:13 22.29729 -78.16590 35045 ft 536 kts 140°
2026-05-06 17:13 22.23821 -78.11681 35046 ft 536 kts 140°
2026-05-06 17:14 22.17914 -78.06779 35035 ft 535 kts 140°
2026-05-06 17:14 22.12005 -78.01880 35043 ft 534 kts 140°
2026-05-06 17:15 22.06096 -77.96987 35046 ft 535 kts 140°
2026-05-06 17:15 22.00178 -77.92091 35053 ft 536 kts 140°
2026-05-06 17:16 21.94486 -77.87389 35054 ft 535 kts 140°
2026-05-06 17:16 21.87990 -77.83361 35038 ft 541 kts 157°
2026-05-06 17:17 21.80805 -77.81004 35042 ft 542 kts 164°
2026-05-06 17:17 21.73502 -77.78868 35062 ft 540 kts 164°
2026-05-06 17:18 21.66223 -77.76748 35028 ft 541 kts 164°
2026-05-06 17:18 21.58969 -77.74640 35074 ft 540 kts 164°
2026-05-06 17:19 21.51671 -77.72522 35098 ft 541 kts 164°
2026-05-06 17:19 21.44413 -77.70419 35102 ft 540 kts 164°
2026-05-06 17:20 21.37114 -77.68307 35090 ft 541 kts 164°
2026-05-06 17:20 21.29862 -77.66211 35078 ft 540 kts 164°
2026-05-06 17:21 21.22604 -77.64116 35089 ft 540 kts 164°
2026-05-06 17:21 21.15303 -77.62010 35075 ft 541 kts 164°
2026-05-06 17:22 21.07997 -77.59905 35057 ft 540 kts 164°
2026-05-06 17:22 21.00753 -77.57820 35049 ft 539 kts 164°
2026-05-06 17:23 20.93471 -77.55725 35049 ft 540 kts 164°
2026-05-06 17:23 20.86205 -77.53638 35033 ft 541 kts 164°
2026-05-06 17:24 20.78910 -77.51543 35028 ft 539 kts 164°
2026-05-06 17:24 20.71666 -77.49466 35027 ft 538 kts 164°
2026-05-06 17:25 20.64428 -77.47392 35029 ft 540 kts 164°
2026-05-06 17:25 20.57120 -77.45375 35019 ft 538 kts 168°
2026-05-06 17:26 20.49657 -77.44858 35033 ft 540 kts 181°
2026-05-06 17:26 20.42129 -77.45033 35028 ft 537 kts 181°
2026-05-06 17:27 20.34625 -77.45220 35030 ft 539 kts 181°
2026-05-06 17:27 20.27111 -77.45409 35032 ft 539 kts 181°
2026-05-06 17:28 20.19778 -77.45596 35035 ft 537 kts 181°
2026-05-06 17:28 20.12246 -77.45786 35045 ft 539 kts 181°
2026-05-06 17:29 20.04729 -77.45977 35052 ft 538 kts 181°
2026-05-06 17:29 19.97217 -77.46168 35059 ft 539 kts 181°
2026-05-06 17:30 19.89697 -77.46359 35052 ft 536 kts 181°
2026-05-06 17:30 19.82218 -77.46549 35034 ft 537 kts 181°
2026-05-06 17:31 19.74715 -77.46738 35026 ft 538 kts 181°
2026-05-06 17:31 19.67200 -77.46928 35026 ft 538 kts 181°
2026-05-06 17:32 19.59730 -77.47117 35030 ft 537 kts 181°
2026-05-06 17:32 19.52246 -77.47276 35021 ft 535 kts 178°
2026-05-06 17:33 19.44865 -77.46026 35032 ft 535 kts 163°
2026-05-06 17:33 19.37738 -77.43832 35031 ft 533 kts 161°
2026-05-06 17:34 19.30593 -77.41599 35025 ft 532 kts 161°
2026-05-06 17:34 19.23443 -77.39363 35027 ft 534 kts 161°
2026-05-06 17:35 19.16731 -77.37264 35032 ft 535 kts 162°
2026-05-06 17:35 19.09583 -77.35028 35032 ft 532 kts 162°
2026-05-06 17:36 18.98861 -77.31676 35033 ft 534 kts 162°
2026-05-06 17:36 18.91718 -77.29445 35032 ft 533 kts 162°
2026-05-06 17:37 18.84573 -77.27215 35024 ft 533 kts 162°
2026-05-06 17:37 18.77443 -77.24992 35023 ft 533 kts 162°
2026-05-06 17:38 18.70267 -77.22756 35554 ft 536 kts 162°
2026-05-06 17:38 18.66677 -77.21639 36075 ft 534 kts 162°
2026-05-06 17:38 18.63122 -77.20532 36507 ft 533 kts 162°
2026-05-06 17:39 18.59546 -77.19420 36874 ft 534 kts 162°
2026-05-06 17:39 18.55945 -77.18300 37015 ft 536 kts 162°
2026-05-06 17:39 18.48811 -77.16084 37018 ft 534 kts 162°
2026-05-06 17:40 18.41646 -77.13859 37039 ft 534 kts 162°
2026-05-06 17:40 18.34491 -77.11639 37052 ft 534 kts 161°
2026-05-06 17:41 18.27310 -77.09413 37084 ft 534 kts 161°
2026-05-06 17:41 18.20211 -77.07215 37081 ft 534 kts 162°
2026-05-06 17:42 18.13258 -77.05064 37068 ft 535 kts 161°
2026-05-06 17:42 18.06091 -77.02848 37051 ft 535 kts 162°
2026-05-06 17:43 17.98903 -77.00627 37034 ft 534 kts 161°
2026-05-06 17:43 17.91788 -76.98431 37061 ft 534 kts 161°
2026-05-06 17:44 17.84642 -76.96228 37048 ft 534 kts 161°
2026-05-06 17:44 17.77513 -76.94031 37037 ft 532 kts 161°
2026-05-06 17:45 17.70360 -76.91830 37023 ft 533 kts 161°
2026-05-06 17:45 17.63220 -76.89634 37006 ft 532 kts 161°
2026-05-06 17:46 17.56131 -76.87456 37005 ft 533 kts 161°
2026-05-06 17:46 17.49007 -76.85268 37005 ft 533 kts 161°
2026-05-06 17:47 17.41888 -76.83085 37016 ft 532 kts 161°
2026-05-06 17:47 17.34737 -76.80893 37015 ft 531 kts 161°
2026-05-06 17:48 17.27648 -76.78721 36996 ft 533 kts 161°
2026-05-06 17:48 17.20504 -76.76535 37011 ft 531 kts 161°
2026-05-06 17:49 17.13427 -76.74371 37005 ft 532 kts 161°
2026-05-06 17:49 17.06323 -76.72201 37012 ft 532 kts 161°
2026-05-06 17:50 16.99220 -76.70033 37010 ft 529 kts 161°
2026-05-06 17:50 16.92107 -76.67862 37009 ft 531 kts 161°
2026-05-06 17:51 16.84980 -76.65690 37002 ft 528 kts 161°
2026-05-06 17:51 16.77903 -76.63535 37000 ft 530 kts 161°
2026-05-06 17:52 16.70787 -76.61369 36998 ft 527 kts 161°
2026-05-06 17:52 16.63689 -76.59210 36995 ft 527 kts 161°
2026-05-06 17:53 16.56582 -76.57050 36995 ft 528 kts 161°
2026-05-06 17:53 16.49780 -76.54984 36999 ft 530 kts 161°
2026-05-06 17:54 16.42659 -76.52823 36997 ft 528 kts 161°
2026-05-06 17:54 16.35627 -76.50691 36994 ft 526 kts 161°
2026-05-06 17:55 16.28546 -76.48544 36993 ft 527 kts 161°
2026-05-06 17:55 16.21654 -76.46458 36993 ft 526 kts 161°
2026-05-06 17:56 16.14636 -76.44334 36992 ft 526 kts 161°
2026-05-06 17:56 16.07531 -76.42185 36992 ft 527 kts 161°
2026-05-06 17:57 16.00476 -76.40054 36989 ft 526 kts 161°
2026-05-06 17:57 15.93430 -76.37927 36989 ft 523 kts 161°
2026-05-06 17:58 15.86406 -76.35806 36978 ft 523 kts 161°
2026-05-06 17:58 15.79379 -76.33687 36976 ft 522 kts 161°
2026-05-06 17:59 15.72400 -76.31585 36981 ft 526 kts 162°
2026-05-06 17:59 15.65334 -76.29458 36979 ft 525 kts 162°
2026-05-06 18:00 15.58305 -76.27344 36978 ft 524 kts 162°
2026-05-06 18:00 15.51278 -76.25231 36977 ft 521 kts 162°
2026-05-06 18:01 15.44282 -76.23130 36983 ft 522 kts 162°
2026-05-06 18:01 15.37333 -76.21043 36977 ft 523 kts 161°
2026-05-06 18:02 15.30313 -76.18938 36973 ft 522 kts 162°
2026-05-06 18:02 15.23274 -76.16827 36973 ft 522 kts 162°
2026-05-06 18:03 15.16271 -76.14730 36966 ft 522 kts 162°
2026-05-06 18:03 15.09298 -76.12643 36976 ft 521 kts 162°
2026-05-06 18:04 15.02274 -76.10541 36973 ft 520 kts 162°
2026-05-06 18:04 14.95362 -76.08446 36964 ft 521 kts 161°
2026-05-06 18:05 14.88368 -76.06288 36966 ft 521 kts 161°
2026-05-06 18:05 14.81390 -76.04139 36980 ft 520 kts 161°
2026-05-06 18:06 14.74428 -76.01997 36975 ft 519 kts 162°
2026-05-06 18:06 14.67474 -75.99861 36959 ft 519 kts 162°
2026-05-06 18:07 14.60549 -75.97736 36962 ft 520 kts 161°
2026-05-06 18:07 14.53553 -75.95589 36953 ft 519 kts 162°
2026-05-06 18:08 14.46615 -75.93463 36954 ft 520 kts 162°
2026-05-06 18:08 14.39681 -75.91339 36954 ft 518 kts 162°
2026-05-06 18:09 14.32714 -75.89207 36952 ft 518 kts 162°
2026-05-06 18:09 14.25798 -75.87090 36949 ft 518 kts 162°
2026-05-06 18:10 14.18820 -75.84957 36954 ft 520 kts 162°
2026-05-06 18:10 14.11908 -75.82846 36947 ft 518 kts 162°
2026-05-06 18:11 14.05057 -75.80754 36951 ft 518 kts 162°
2026-05-06 18:11 13.98093 -75.78629 36946 ft 519 kts 162°
2026-05-06 18:12 13.91160 -75.76515 36949 ft 519 kts 162°
2026-05-06 18:12 13.84229 -75.74403 36939 ft 518 kts 162°
2026-05-06 18:13 13.77265 -75.72282 36940 ft 518 kts 162°
2026-05-06 18:13 13.70364 -75.70181 36936 ft 518 kts 162°
2026-05-06 18:14 13.63406 -75.68065 36931 ft 518 kts 163°
2026-05-06 18:14 13.56489 -75.65962 36935 ft 519 kts 163°
2026-05-06 18:15 13.49539 -75.63851 36929 ft 520 kts 163°
2026-05-06 18:15 13.42580 -75.61739 36930 ft 518 kts 163°
2026-05-06 18:16 13.35627 -75.59628 36938 ft 519 kts 163°
2026-05-06 18:16 13.28716 -75.57533 36928 ft 518 kts 163°
2026-05-06 18:17 13.21750 -75.55421 36937 ft 518 kts 163°
2026-05-06 18:17 13.14966 -75.53367 36922 ft 515 kts 163°
2026-05-06 18:18 13.08025 -75.51266 36925 ft 518 kts 163°
2026-05-06 18:18 13.01106 -75.49172 36931 ft 517 kts 163°
2026-05-06 18:19 12.94233 -75.47095 36924 ft 517 kts 163°
2026-05-06 18:19 12.87280 -75.44993 36914 ft 516 kts 164°
2026-05-06 18:20 12.80362 -75.42904 36920 ft 516 kts 163°
2026-05-06 18:20 12.73470 -75.40823 36915 ft 515 kts 164°
2026-05-06 18:21 12.66558 -75.38738 36921 ft 516 kts 164°
2026-05-06 18:21 12.59684 -75.36666 36910 ft 513 kts 164°
2026-05-06 18:22 12.52789 -75.34588 36907 ft 516 kts 164°
2026-05-06 18:22 12.45893 -75.32511 36905 ft 513 kts 164°
2026-05-06 18:23 12.39041 -75.30449 36897 ft 514 kts 164°
2026-05-06 18:23 12.32133 -75.28371 36889 ft 512 kts 164°
2026-05-06 18:24 12.25258 -75.26303 36893 ft 513 kts 164°
2026-05-06 18:24 12.18382 -75.24237 36888 ft 512 kts 164°
2026-05-06 18:25 12.11691 -75.22227 36886 ft 511 kts 165°
2026-05-06 18:25 12.04831 -75.20168 36885 ft 511 kts 164°
2026-05-06 18:26 11.97993 -75.18117 36887 ft 512 kts 164°
2026-05-06 18:26 11.91158 -75.16067 36882 ft 511 kts 164°
2026-05-06 18:27 11.84279 -75.14006 36879 ft 510 kts 164°
2026-05-06 18:27 11.77426 -75.11953 36877 ft 511 kts 165°
2026-05-06 18:28 11.70603 -75.09911 36878 ft 511 kts 165°
2026-05-06 18:28 11.63759 -75.07882 36872 ft 510 kts 166°
2026-05-06 18:29 11.56836 -75.06086 36875 ft 510 kts 167°
2026-05-06 18:29 11.50395 -75.04424 36872 ft 510 kts 166°
2026-05-06 18:30 11.43477 -75.02633 36871 ft 511 kts 166°
2026-05-06 18:30 11.36612 -75.00851 36869 ft 510 kts 166°
2026-05-06 18:31 11.31402 -74.99497 36866 ft 510 kts 166°
2026-05-06 18:31 11.24527 -74.97711 36868 ft 510 kts 166°
2026-05-06 18:32 11.17629 -74.95918 36881 ft 509 kts 166°
2026-05-06 18:32 11.10727 -74.94125 36895 ft 510 kts 166°
2026-05-06 18:33 11.03834 -74.92336 36888 ft 511 kts 166°
2026-05-06 18:33 10.96942 -74.90546 36906 ft 510 kts 166°
2026-05-06 18:34 10.90059 -74.88759 36905 ft 509 kts 166°
2026-05-06 18:34 10.83145 -74.86966 36901 ft 509 kts 166°
2026-05-06 18:35 10.76267 -74.85138 36902 ft 509 kts 165°
2026-05-06 18:35 10.69384 -74.83172 36872 ft 510 kts 165°
2026-05-06 18:36 10.62552 -74.81224 36871 ft 511 kts 165°
2026-05-06 18:36 10.55663 -74.79266 36900 ft 511 kts 165°
2026-05-06 18:37 10.48806 -74.77319 36855 ft 511 kts 165°
2026-05-06 18:37 10.41911 -74.75365 36837 ft 511 kts 165°
2026-05-06 18:38 10.35047 -74.73420 36844 ft 510 kts 165°
2026-05-06 18:38 10.28348 -74.71524 36837 ft 511 kts 165°
2026-05-06 18:39 10.21467 -74.69578 36835 ft 512 kts 165°
2026-05-06 18:40 10.11162 -74.66663 36831 ft 511 kts 165°
2026-05-06 18:40 10.04253 -74.64711 36821 ft 511 kts 165°
2026-05-06 18:41 9.97393 -74.62775 36816 ft 512 kts 165°
2026-05-06 18:41 9.90489 -74.60825 36835 ft 511 kts 165°
2026-05-06 18:42 9.83593 -74.58879 36826 ft 510 kts 165°
2026-05-06 18:42 9.76749 -74.56950 36834 ft 511 kts 165°
2026-05-06 18:43 9.69887 -74.55016 36828 ft 510 kts 165°
2026-05-06 18:43 9.62967 -74.53065 36814 ft 511 kts 165°
2026-05-06 18:44 9.56275 -74.51180 36814 ft 509 kts 165°
2026-05-06 18:44 9.49587 -74.49297 36822 ft 508 kts 165°
2026-05-06 18:45 9.42711 -74.47362 36811 ft 506 kts 165°
2026-05-06 18:45 9.35894 -74.45444 36822 ft 507 kts 165°
2026-05-06 18:46 9.29058 -74.43522 36820 ft 506 kts 165°
2026-05-06 18:46 9.22216 -74.41599 36807 ft 510 kts 165°
2026-05-06 18:47 9.15395 -74.39681 36816 ft 507 kts 165°
2026-05-06 18:47 9.08541 -74.37756 36817 ft 506 kts 165°
2026-05-06 18:48 9.01763 -74.35854 36815 ft 506 kts 165°
2026-05-06 18:48 8.94941 -74.33939 36818 ft 507 kts 165°
2026-05-06 18:49 8.88096 -74.32018 36814 ft 506 kts 165°
2026-05-06 18:49 8.81214 -74.30088 36816 ft 506 kts 165°
2026-05-06 18:50 8.74344 -74.28162 36823 ft 506 kts 165°
2026-05-06 18:50 8.67535 -74.26254 36823 ft 506 kts 165°
2026-05-06 18:51 8.60704 -74.24341 36833 ft 507 kts 165°
2026-05-06 18:51 8.53897 -74.22435 36836 ft 504 kts 165°
2026-05-06 18:52 8.47058 -74.20521 36845 ft 506 kts 165°
2026-05-06 18:52 8.40253 -74.18617 36880 ft 506 kts 165°
2026-05-06 18:53 8.33412 -74.16704 36917 ft 504 kts 165°
2026-05-06 18:53 8.26608 -74.14800 36936 ft 506 kts 165°
2026-05-06 18:54 8.19816 -74.12902 36963 ft 505 kts 165°
2026-05-06 18:54 8.12973 -74.10990 36964 ft 506 kts 165°
2026-05-06 18:55 8.06192 -74.09096 36965 ft 504 kts 165°
2026-05-06 18:55 7.99374 -74.07193 36959 ft 504 kts 165°
2026-05-06 18:56 7.92595 -74.05313 36938 ft 505 kts 165°
2026-05-06 18:56 7.85783 -74.03431 36904 ft 503 kts 165°
2026-05-06 18:57 7.78968 -74.01547 36885 ft 503 kts 165°
2026-05-06 18:57 7.72193 -73.99676 36852 ft 502 kts 165°
2026-05-06 18:58 7.65440 -73.97811 36845 ft 503 kts 165°
2026-05-06 18:58 7.58615 -73.95927 36846 ft 506 kts 164°
2026-05-06 18:59 7.51816 -73.94051 36842 ft 504 kts 165°
2026-05-06 18:59 7.45035 -73.92180 36842 ft 501 kts 164°
2026-05-06 19:00 7.38307 -73.90324 36842 ft 498 kts 164°
2026-05-06 19:00 7.31551 -73.88460 36896 ft 499 kts 164°
2026-05-06 19:01 7.24792 -73.86597 36890 ft 500 kts 164°
2026-05-06 19:01 7.18323 -73.84815 36903 ft 501 kts 164°
2026-05-06 19:02 7.11576 -73.82956 36911 ft 500 kts 164°
2026-05-06 19:02 7.04780 -73.81361 36904 ft 500 kts 173°
2026-05-06 19:03 6.97810 -73.81583 36910 ft 501 kts 189°
2026-05-06 19:03 6.90903 -73.82825 36905 ft 501 kts 190°
2026-05-06 19:04 6.84009 -73.84102 36909 ft 503 kts 190°
2026-05-06 19:04 6.77102 -73.85387 36907 ft 503 kts 190°
2026-05-06 19:05 6.70141 -73.86686 36887 ft 503 kts 190°
2026-05-06 19:05 6.63229 -73.87977 36888 ft 504 kts 190°
2026-05-06 19:06 6.56294 -73.89273 36902 ft 504 kts 190°
2026-05-06 19:06 6.49320 -73.90576 36903 ft 504 kts 190°
2026-05-06 19:07 6.42410 -73.91868 36960 ft 503 kts 190°
2026-05-06 19:07 6.35515 -73.93158 37006 ft 502 kts 190°
2026-05-06 19:08 6.28591 -73.94453 36991 ft 504 kts 190°
2026-05-06 19:08 6.21688 -73.95744 36783 ft 495 kts 190°
2026-05-06 19:08 6.18277 -73.96381 35848 ft 497 kts 190°
2026-05-06 19:09 6.14875 -73.97017 34814 ft 500 kts 190°
2026-05-06 19:09 6.11437 -73.97659 33911 ft 500 kts 189°
2026-05-06 19:09 6.08006 -73.98300 33056 ft 498 kts 189°
2026-05-06 19:09 6.04572 -73.98942 32175 ft 499 kts 189°
2026-05-06 19:10 6.01178 -73.99576 31317 ft 499 kts 189°
2026-05-06 19:10 5.97738 -74.00226 30513 ft 498 kts 190°
2026-05-06 19:10 5.94334 -74.00874 30016 ft 490 kts 190°
2026-05-06 19:10 5.90999 -74.01508 29486 ft 483 kts 189°
2026-05-06 19:11 5.87697 -74.02135 28945 ft 478 kts 189°
2026-05-06 19:11 5.84407 -74.02760 28365 ft 477 kts 189°
2026-05-06 19:11 5.81134 -74.03381 27623 ft 483 kts 190°
2026-05-06 19:11 5.77838 -74.04006 27412 ft 481 kts 190°
2026-05-06 19:12 5.74512 -74.04637 27191 ft 479 kts 190°
2026-05-06 19:12 5.71239 -74.05258 26477 ft 479 kts 190°
2026-05-06 19:12 5.67937 -74.05885 25754 ft 478 kts 190°
2026-05-06 19:12 5.64675 -74.06503 25089 ft 475 kts 190°
2026-05-06 19:13 5.61601 -74.07086 24477 ft 471 kts 190°
2026-05-06 19:13 5.58585 -74.07658 23800 ft 467 kts 190°
2026-05-06 19:13 5.55378 -74.08265 23114 ft 462 kts 190°
2026-05-06 19:13 5.52256 -74.08858 22731 ft 449 kts 190°
2026-05-06 19:14 5.49243 -74.09429 22575 ft 430 kts 190°
2026-05-06 19:14 5.46357 -74.10051 22478 ft 412 kts 195°
2026-05-06 19:14 5.43724 -74.11076 22350 ft 398 kts 206°
2026-05-06 19:14 5.41407 -74.12530 22273 ft 387 kts 218°
2026-05-06 19:15 5.39386 -74.14346 22020 ft 384 kts 224°
2026-05-06 19:15 5.37500 -74.16251 21477 ft 387 kts 225°
2026-05-06 19:15 5.35626 -74.18211 20965 ft 388 kts 226°
2026-05-06 19:15 5.33778 -74.20194 20488 ft 388 kts 227°
2026-05-06 19:16 5.31939 -74.22199 20021 ft 388 kts 227°
2026-05-06 19:16 5.30123 -74.24203 19537 ft 387 kts 227°
2026-05-06 19:16 5.28326 -74.26200 19081 ft 385 kts 227°
2026-05-06 19:16 5.26581 -74.28223 18544 ft 383 kts 233°
2026-05-06 19:17 5.25189 -74.30500 17919 ft 382 kts 244°
2026-05-06 19:17 5.24289 -74.32987 17575 ft 373 kts 256°
2026-05-06 19:17 5.23917 -74.35525 17563 ft 357 kts 268°
2026-05-06 19:17 5.23965 -74.37964 17563 ft 351 kts 273°
2026-05-06 19:18 5.24096 -74.40444 17547 ft 352 kts 273°
2026-05-06 19:18 5.24245 -74.42895 17668 ft 351 kts 274°
2026-05-06 19:18 5.24308 -74.45342 17838 ft 350 kts 264°
2026-05-06 19:18 5.23790 -74.47697 18027 ft 350 kts 251°
2026-05-06 19:19 5.22983 -74.50019 18204 ft 349 kts 250°
2026-05-06 19:19 5.22148 -74.52304 18284 ft 351 kts 249°
2026-05-06 19:19 5.21297 -74.54594 18263 ft 350 kts 249°
2026-05-06 19:19 5.20437 -74.56896 18223 ft 352 kts 249°
2026-05-06 19:20 5.19440 -74.59119 18168 ft 348 kts 236°
2026-05-06 19:20 5.17903 -74.61011 18131 ft 346 kts 224°
2026-05-06 19:20 5.16186 -74.62727 18083 ft 346 kts 222°
2026-05-06 19:20 5.14457 -74.64390 18040 ft 346 kts 222°
2026-05-06 19:21 5.12691 -74.66071 17993 ft 345 kts 221°
2026-05-06 19:21 5.10949 -74.67723 17968 ft 345 kts 221°
2026-05-06 19:21 5.09174 -74.69385 17972 ft 345 kts 217°
2026-05-06 19:21 5.07152 -74.70624 17990 ft 341 kts 199°
2026-05-06 19:22 5.04897 -74.71443 18013 ft 340 kts 195°
2026-05-06 19:22 5.02638 -74.72125 18016 ft 338 kts 187°
2026-05-06 19:22 5.00282 -74.72192 18020 ft 332 kts 166°
2026-05-06 19:22 4.98138 -74.71442 18017 ft 325 kts 145°
2026-05-06 19:23 4.96310 -74.70081 18026 ft 324 kts 137°
2026-05-06 19:23 4.94775 -74.68417 17621 ft 325 kts 119°
2026-05-06 19:23 4.93881 -74.66364 17133 ft 324 kts 104°
2026-05-06 19:23 4.93398 -74.64159 16715 ft 323 kts 98°
2026-05-06 19:24 4.93104 -74.61942 16346 ft 320 kts 95°
2026-05-06 19:24 4.92877 -74.59727 15970 ft 316 kts 95°
2026-05-06 19:24 4.92676 -74.57534 15616 ft 313 kts 94°
2026-05-06 19:24 4.92485 -74.55367 15278 ft 309 kts 94°
2026-05-06 19:25 4.92299 -74.53246 14951 ft 305 kts 94°
2026-05-06 19:25 4.92107 -74.51139 14620 ft 301 kts 94°
2026-05-06 19:25 4.91926 -74.49057 14315 ft 297 kts 94°
2026-05-06 19:25 4.91754 -74.47002 14027 ft 294 kts 94°
2026-05-06 19:26 4.91568 -74.44952 13696 ft 293 kts 94°
2026-05-06 19:26 4.91386 -74.42938 13281 ft 292 kts 98°
2026-05-06 19:26 4.90738 -74.41045 13001 ft 285 kts 118°
2026-05-06 19:26 4.89692 -74.39383 12784 ft 272 kts 123°
2026-05-06 19:27 4.88631 -74.37870 12630 ft 258 kts 125°
2026-05-06 19:27 4.87611 -74.36441 12591 ft 243 kts 125°
2026-05-06 19:27 4.86642 -74.35091 12510 ft 234 kts 125°
2026-05-06 19:27 4.85691 -74.33765 12374 ft 234 kts 125°
2026-05-06 19:28 4.84717 -74.32457 12219 ft 232 kts 132°
2026-05-06 19:28 4.83547 -74.31358 12016 ft 229 kts 138°
2026-05-06 19:28 4.82333 -74.30323 11752 ft 224 kts 139°
2026-05-06 19:28 4.81162 -74.29327 11491 ft 219 kts 138°
2026-05-06 19:29 4.80009 -74.28338 11220 ft 212 kts 138°
2026-05-06 19:29 4.78983 -74.27361 11003 ft 196 kts 129°
2026-05-06 19:29 4.78139 -74.26314 10717 ft 190 kts 129°
2026-05-06 19:29 4.77409 -74.25225 10356 ft 187 kts 123°
2026-05-06 19:30 4.76668 -74.24224 10145 ft 177 kts 127°
2026-05-06 19:30 4.75882 -74.23241 9885 ft 181 kts 127°
2026-05-06 19:30 4.75069 -74.22232 9624 ft 188 kts 127°
2026-05-06 19:30 4.74267 -74.21182 9391 ft 190 kts 125°
2026-05-06 19:31 4.73467 -74.20115 9131 ft 191 kts 125°
2026-05-06 19:31 4.72666 -74.19037 8872 ft 194 kts 127°
2026-05-06 19:31 4.71050 -74.16915 8402 ft 178 kts 127°
2026-05-06 19:32 4.70362 -74.16009 8370 ft 142 kts 127°
2026-05-06 19:32 4.69901 -74.15401 8379 ft 75 kts 127°
2026-05-06 19:32 4.69750 -74.15171 8380 ft 31 kts 110°
2026-05-06 19:32 4.69710 -74.15004 8381 ft 16 kts 97°
2026-05-06 19:33 4.69702 -74.14944 8381 ft 7 kts 97°
2026-05-06 19:33 4.69702 -74.14877 8382 ft 10 kts 77°
2026-05-06 19:33 4.69739 -74.14823 8382 ft 9 kts 42°
2026-05-06 19:33 4.69798 -74.14776 8383 ft 12 kts 36°
2026-05-06 19:34 4.69874 -74.14719 8385 ft 13 kts 37°
2026-05-06 19:34 4.69949 -74.14663 8386 ft 15 kts 37°
2026-05-06 19:34 4.70045 -74.14590 8388 ft 18 kts 38°
2026-05-06 19:34 4.70157 -74.14505 8387 ft 21 kts 37°
2026-05-06 19:35 4.70270 -74.14420 8385 ft 18 kts 36°
2026-05-06 19:35 4.70337 -74.14366 8384 ft 7 kts 67°
2026-05-06 19:35 4.70326 -74.14316 8385 ft 9 kts 116°
2026-05-06 19:35 4.70274 -74.14245 8386 ft 14 kts 127°
2026-05-06 19:36 4.70221 -74.14175 8387 ft 11 kts 127°
2026-05-06 19:36 4.70164 -74.14099 8389 ft 14 kts 127°
2026-05-06 19:36 4.70112 -74.14033 8389 ft 9 kts 139°
2026-05-06 19:36 4.70057 -74.14022 8389 ft 7 kts 181°
2026-05-06 19:37 4.70012 -74.14027 8389 ft 5 kts 196°
2026-05-06 19:37 4.69987 -74.14039 8390 ft 2 kts 211°
2026-05-06 19:37 4.69977 -74.14046 8390 ft 1 kts 215°
2026-05-06 19:37 4.69969 -74.14052 8390 ft 3 kts 215°
2026-05-06 19:38 4.69957 -74.14060 8390 ft 0 kts 216°